www.pogodaiklimat.ru

Погода и климат >> Архив погоды >> Россия >> Оренбургская область >> Беляевка


ПОГОДА в Беляевке

  • Прогноз погоды в Беляевке
  • Монитор погоды в Беляевке
  • Климат города

АРХИВ ПОГОДЫ в Беляевке

Время (UTC), дата Ветер
(напр.,м/с)
 
Видим.   Явления Облачность Т
(С)
Тd
(С)
f
(%)
Тe
(С)
Тes
(С)
Комфортность P
(гПа)
Po
(гПа)
Тmin
(С)
Tmax
(С)
R
(мм)
R24
(мм)
S
(см)
09 19.06 З 6-10
{12}
20 км в посл. час ливневой дождь 8/8 720 м
[Cb calv]
+22.1 +11.3 50 +24 +25 комфорт 1005.9 990.6
12 19.06 З 5
{12}
20 км {ливн. осадки} 8/8 800 м
[Cu med, cong]
+23.4 +12.0 49 +26 +27 жарко 1004.7 989.5
15 19.06 З 4 20 км {ливн. осадки} 6/0
[Ci]
+21.5 +11.7 54 +24 +24 комфорт 1004.5 989.2 +24.2 0.0
18 19.06 ЮЗ 1 10 км 4/4 800 м
[Cu med, cong]
+16.7 +12.5 76 +18 +18 1005.3 989.7
21 19.06 Ю 2 10 км ясно +13.7 +12.7 94 +13 +13 1004.8 989.0
00 20.06 З 2 20 км ясно +13.5 +11.3 87 +13 +13 1004.7 988.9
03 20.06 ЮЗ 2 20 км ясно +18.5 +12.7 69 +20 +24 1004.8 989.3 +11.7
06 20.06 ЮЗ 5 20 км 9/0
[Ac lent Ci fib]
+22.6 +11.6 50 +25 +29 комфорт 1004.5 989.2
09 20.06 З 7-12
{12}
20 км в посл. час ливневой дождь 9/9 840 м
[Cb calv]
+25.6 +9.7 37 +26 +27 жарко 1003.2 988.1
12 20.06 З 5
{12}
20 км {ливн. осадки} 9/9 800 м
[Cb calv]
+24.9 +10.6 41 +26 +27 жарко 1002.0 986.9
15 20.06 З 2
{14}
20 км {ливн. осадки} 9/9 840 м
[Cb cap]
+18.9 +13.1 69 +20 +20 1003.4 987.9 +25.8 0.4
18 20.06 ЮЗ 2
{11}
10 км {ливн. осадки} 8/8 660 м
[Cb calv]
+16.0 +13.8 87 +16 +16 1003.8 988.2
21 20.06 З 2 4000 м дымка ясно +12.8 +12.1 96 +12 +12 1004.6 988.8
00 21.06 штиль 0 4000 м дымка ясно +8.0 +7.7 98 +7 +7 1005.8 989.7
03 21.06 З 1 20 км ясно +15.7 +12.7 82 +16 +21 1006.3 990.6 +7.9 0.9
06 21.06 З 3 20 км 3/3 600 м
[Cu hum]
+20.8 +10.8 53 +23 +31 комфорт 1006.0 990.6
09 21.06 СЗ 4 20 км 6/6 600 м
[Cu hum]
+23.6 +8.0 37 +24 +29 комфорт 1005.7 990.4
12 21.06 СЗ 3 20 км 3/3 600 м
[Cu hum]
+24.6 +7.7 34 +25 +30 комфорт 1004.9 989.7
15 21.06 С 1 20 км ясно +23.7 +7.9 36 +24 +25 комфорт 1005.0 989.7 +24.8
18 21.06 В 1 10 км ясно +15.0 +11.1 77 +16 +16 1005.6 989.9
21 21.06 В 2 4000 м дымка ясно +10.9 +8.7 86 +10 +10 1005.8 989.9
00 22.06 В 3 4000 м дымка ясно +9.3 +7.9 91 +7 +7 1006.4 990.4
03 22.06 ЮВ 3 20 км ясно +17.0 +10.2 64 +17 +20 1006.0 990.4 +9.2
06 22.06 Ю 3 20 км ясно +26.5 +8.6 32 +27 +38 жарко 1004.6 989.5
09 22.06 Ю 3 20 км 4/4 900 м
[Cu med, cong]
+28.5 +7.8 27 +28 +36 жарко 1003.7 988.8
12 22.06 Ю 2 20 км 8/8 840 м
[Cu med, cong]
+30.1 +7.5 24 +29 +31 жарко 1002.2 987.3
15 22.06 ЮЗ 1 20 км 9/0
[Ac trans Ci fib]
+29.6 +7.7 25 +29 +29 жарко 1001.4 986.5 +30.7
18 22.06 В 3 10 км 4/4 600 м
[Sc]
+20.3 +12.1 59 +23 +23 комфорт 1002.4 987.0
21 22.06 З 4 10 км 10/0
[As op]
+20.6 +13.5 64 +23 +23 комфорт 1003.3 987.9
00 23.06 З 3 20 км 10/8 660 м
[Frnb As op]
+18.2 +15.5 84 +19 +19 1004.5 989.0
03 23.06 СЗ 3 20 км 9/0
[Ac und]
+18.9 +16.2 84 +20 +22 1005.2 989.8 +17.0
06 23.06 СЗ 3 20 км 8/0
[Ac As Ci]
+23.2 +15.1 60 +27 +34 душно 1005.4 990.2
09 23.06 СЗ 4 20 км 8/0
[Ac lent Ci]
+23.8 +8.9 39 +25 +31 комфорт 1006.6 991.3
12 23.06 СЗ 4 20 км 6/6 870 м
[Cu med, cong]
+24.3 +7.6 34 +25 +27 комфорт 1006.4 991.2
15 23.06 СЗ 3 20 км 8/0
[Ac trans Ci fib]
+22.4 +6.7 36 +23 +24 комфорт 1007.0 991.6 +24.9
18 23.06 СЗ 1 10 км ясно +15.2 +8.5 64 +16 +16 1008.8 993.0
21 23.06 З 2 10 км ясно +11.0 +6.1 72 +10 +10 1009.8 993.8
00 24.06 штиль 0 20 км ясно +8.4 +6.2 86 +8 +8 1010.2 994.0
03 24.06 СЗ 1 20 км ясно +15.4 +9.2 67 +16 +21 1010.6 994.9 +7.3
06 24.06 С 2 20 км ясно +21.9 +5.6 35 +22 +36 комфорт 1010.2 994.8
09 24.06 СЗ 1 20 км 4/0
[Ci]
+24.1 +6.1 31 +24 +42 комфорт 1009.2 993.9
12 24.06 Ю 3 20 км 9/0
[Ac lent Ci]
+25.1 +6.4 30 +25 +29 комфорт 1007.4 992.2
15 24.06 Ю 3 20 км 8/0
[Ci]
+23.2 +7.0 35 +24 +25 комфорт 1006.2 990.9 +25.8
18 24.06 ЮВ 4 10 км 9/0
[Ac und]
+19.2 +6.9 45 +20 +20 1004.8 989.3
21 24.06 Ю 6
{11}
10 км 10/0
[As op]
+20.2 +6.1 40 +21 +21 комфорт 1003.0 987.6
00 25.06 Ю 7-11
{11}
4000 м слабый дождь 10/0
[As op]
+16.0 +13.9 87 +14 +14 1001.9 986.3
03 25.06 ЮЗ 5
{11}
10 км {дождь} 9/9 630 м
[Cb calv]
+17.1 +15.9 93 +16 +17 1001.5 986.0 +15.9 3
06 25.06 З 8-12
{14}
20 км {дождь} 9/9 700 м
[Cb calv]
+17.5 +11.3 67 +16 +17 1003.7 988.1
09 25.06 З 7-11
{13}
20 км 9/9 720 м
[Cb calv]
+17.5 +9.8 61 +17 +17 1005.6 990.1
12 25.06 СЗ 5
{12}
20 км 8/6 840 м
[Cu med, cong Ci fib]
+20.5 +8.7 47 +22 +23 комфорт 1007.4 992.0
15 25.06 СЗ 4
{11}
20 км 8/4 600 м
[Cu med, cong Ci fib]
+21.0 +8.0 43 +22 +23 комфорт 1008.1 992.6 +21.6
18 25.06 З 2 10 км 8/0
[Ci fib]
+14.3 +9.5 73 +14 +14 1010.1 994.3
21 25.06 З 2 10 км ясно +11.8 +8.8 82 +11 +11 1011.3 995.3
00 26.06 штиль 0 4000 м дымка 4/0
[Ci fib]
+8.2 +7.7 97 +7 +7 1013.0 996.8
03 26.06 ЮЗ 1 20 км ясно +15.3 +10.2 72 +16 +21 1013.6 997.7 +7.7
06 26.06 СЗ 5 20 км 6/6 720 м
[Cu med, cong]
+21.4 +8.8 44 +23 +26 комфорт 1013.6 998.1

 

Местоположение метеостанции Беляевка (Оренбургская область, Россия): широта 51.42 долгота 56.42 высота над уровнем моря 131 м.

В архиве по умолчанию представлена погода в Беляевке за последнюю неделю. Архивные данные за месяц целиком и за предыдущие месяцы, начиная с января 2011 года, Вы можете получить, выбрав интересующий диапазон дат из раскрывающегося списка и нажав кнопку "Ввод!".

Внимание! Время в таблицах - всемирное. Для получения местного времени необходимо прибавить поправку, которая в Беляевке равна 5 ч.

Смотрите также архив погоды в соседних городах и на ближайших метеорологических станциях:

Погода в Кувандыке (Оренбургская область, Россия) (66 км)
Погода в Акбулаке (Оренбургская область, Россия) (71 км)
Погода в Мартуке (Актюбинская область, Казахстан) (75 км)
Погода в Оренбурге (Оренбургская область, Россия) (96 км)
Погода в Троицком Т (Оренбургская область, Россия) (101 км)
Погода в Родниковке (Актюбинская область, Казахстан) (101 км)
Погода в Соль-Илецк (Оренбургская область, Россия) (102 км)
Погода в Зилаире (Башкирия, Россия) (112 км)
Погода в Кос-Истеке (Актюбинская область, Казахстан) (129 км)
Погода в Акъяре (Башкирия, Россия) (131 км)

Пояснения к столбцам:

Ветер - указаны скорость ветра в м/с - средняя за 10 мин, порывы в срок и между сроками (в фигурных скобках) и направление, откуда дует ветер: С - северный, СВ - северо-восточный, В - восточный, ЮВ - юго-восточный, Ю - южный, ЮЗ - юго-западный, З - западный, СЗ - северо-западный.
Видимость - горизонтальная дальность видимости в метрах или километрах. При видимости от 1 до 10 км при отсутствии осадков обычно наблюдается дымка, при ухудшении видимости до 1 км и менее - туман. В сухую погоду видимость может ухудшаться дымом, пылью или мглою.
Явления - указаны атмосферные явления, наблюдавшиеся в срок или в последний час перед сроком; фигурными скобками обозначены явления, наблюдавшиеся между сроками (за 1-3 часа до срока); квадратными скобками обозначены град или гололедные отложения с указанием их диаметра в мм.
Облачность - указаны через наклонную черту общая и нижняя облачность в баллах и высота нижней границы облаков в метрах; квадратными скобками обозначены формы облаков: Ci - перистые, Cs - перисто-слоистые, Cc - перисто-кучевые, Ac - высококучевые, As - высокослоистые, Sc - слоисто-кучевые, Ns - слоисто-дождевые, Cu - кучевые, Cb - кучево-дождевые. Подробнее классификацию облаков см. в Атласе облаков (PDF).
T - Температура воздуха - температура, измеренная на высоте 2 м над землей.
Td - Температура точки росы - температура, при понижении до которой содержащийся в воздухе водяной пар достигнет насыщения.
f - Относительная влажность воздуха - влажноcть воздуха, измеренная на высоте 2 м над землей.
Te - Эффективная температура - температура, которую ощущает одетый по сезону человек в тени. Характеристика душности погоды. При расчете учитывается влияние влажности воздуха и скорости ветра на теплоощущения человека.
Tes - Эффективная температура на солнце - температура, которую ощущает человек, с поправкой на солнечный нагрев. Характеристика знойности погоды. Зависит от высоты солнца над горизонтом, облачности и скорости ветра. Ночью, в пасмурную погоду, а также при ветре 12 м/с и более поправка равна нулю.
P - Атмосферное давление - приведенное к уровню моря атмосферное давление.
Po - Атмосферное давление - измеренное на уровне метеостанции атмосферное давление.
Tmin - Минимальная температура - минимум температуры воздуха на высоте 2 м над землей.
Tmax - Максимальная температура - максимум температуры воздуха на высоте 2 м над землей.
R - Количество осадков - Количество выпавших осадков за период времени, мм. При наведении курсора мыши на число - период времени, за который выпало указанное количество осадков.
R24 - Количество осадков - Количество выпавших осадков за 24 часа, мм.
S - Снежный покров - Высота снежного покрова, см. При наведении курсора мыши на число - состояние снежного покрова и степень покрытия местности в баллах.